• Processing (Info)

  • MPEC 2023-R56 : 2023 RG1

    The following Minor Planet Electronic Circular may be linked-to from your own Web pages, but must not otherwise be redistributed electronically.

    A form allowing access to any MPEC is at the bottom of this page.


    Read MPEC 2023-R55 Read MPEC 2023-R57


    M.P.E.C. 2023-R56                             Issued 2023 September 8, 10:57 UT
    
         The Minor Planet Electronic Circulars contain information on unusual
             minor planets, routine data on comets and natural satellites,
             and occasional editorial announcements.  They are published
        on behalf of Division F of the International Astronomical Union by the
              Minor Planet Center, Smithsonian Astrophysical Observatory,
                              Cambridge, MA 02138, U.S.A.
    			  
                 Prepared using the Tamkin Foundation Computer Network
    
                                  MPC@CFA.HARVARD.EDU
                URL https://www.minorplanetcenter.net/    ISSN 1523-6714
    
                                    2023 RG1                                 
    
    
    Observations:
         K23R01G*1C2023 09 06.31028123 30 04.608+00 38 45.24         20.87GVER056G96
         K23R01G 1C2023 09 06.31595023 30 03.902+00 38 42.18         21.75GVER056G96
         K23R01G 1C2023 09 06.32162823 30 03.208+00 38 39.88               VER056G96
         K23R01G 1C2023 09 06.32730423 30 02.423+00 38 37.61         22.29GVER056G96
         K23R01G 1C2023 09 06.45418023 29 46.745+00 37 40.01         21.33GVER056G96
         K23R01G 1C2023 09 06.45563623 29 46.583+00 37 39.43         21.15GVER056G96
         K23R01G 1C2023 09 06.45773923 29 46.259+00 37 38.46         20.49GVER056G96
         K23R01G 1C2023 09 06.45919623 29 46.115+00 37 37.88         20.31GVER056G96
         K23R01G KC2023 09 07.27264223 28 13.847+00 31 28.20         21.38GVER056V06
         K23R01G KC2023 09 07.27540223 28 13.501+00 31 27.01         21.59GVER056V06
         K23R01G KC2023 09 07.27815923 28 13.141+00 31 25.72         21.36GVER056V06
         K23R01G KC2023 09 07.28092223 28 12.824+00 31 24.71         21.42GVER056V06
         K23R01G KC2023 09 08.41143623 26 02.285+00 22 44.80         21.56GVER056V06
         K23R01G KC2023 09 08.41396023 26 01.964+00 22 43.36         22.31GVER056V06
         K23R01G KC2023 09 08.41648423 26 01.662+00 22 42.24         21.29GVER056V06
         K23R01G KC2023 09 08.41900723 26 01.367+00 22 40.84         21.29GVER056V06
    
    Observer details:
    G96 Mt. Lemmon Survey.  Observer A. R. Gibbs.  Measurers E. J. Christensen, D.
        Fay, J. B. Fazekas, D. C. Fuls, A. R. Gibbs, A. D. Grauer, H. Groeller, J.
        K. Hogan, R. A. Kowalski, S. M. Larson, G. J. Leonard, D. Rankin, R. L.
        Seaman, A. Serrano, F. C. Shelly, K. W. Wierzchos.  1.5-m reflector + 10K
        CCD.
    V06 Catalina Sky Survey-Kuiper.  Observer J. B. Fazekas.  Measurers E. J.
        Christensen, D. Fay, J. B. Fazekas, D. C. Fuls, A. R. Gibbs, A. D. Grauer,
        H. Groeller, J. K. Hogan, R. A. Kowalski, S. M. Larson, G. J. Leonard, D.
        Rankin, R. L. Seaman, A. Serrano, F. C. Shelly, K. W. Wierzchos.  1.55-m
        reflector + 1K CCD.
    
    Orbital elements:
    2023 RG1                                                 Earth MOID = 0.0527 AU
    Epoch 2023 Sept. 13.0 TT = JDT 2460200.5                Veres                   
    M  80.74386              (2000.0)            P               Q                  
    n   0.62917565     Peri.  280.39023     -0.44620942     +0.89458931             
    a   1.3488224      Node   323.07719     -0.80419858     -0.41289911             
    e   0.2235571      Incl.    2.35069     -0.39263443     -0.17095111             
    P   1.57           H   22.78          G   0.15           U   9                  
    Residuals in seconds of arc
    230906 G96  0.3+  0.1+    230906 G96  0.7-  0.1-    230908 V06  0.1+  0.3+
    230906 G96  0.3+  0.4-    230906 G96  0.2-  0.0     230908 V06  0.1-  0.0
    230906 G96  0.5+  0.2-    230907 V06  0.1+  0.1-    230908 V06  0.1-  0.1+
    230906 G96  0.6-  0.1+    230907 V06  0.0   0.0     230908 V06  0.1+  0.2-
    230906 G96  0.0   0.1-    230907 V06  0.2-  0.0
    230906 G96  0.3+  0.0     230907 V06  0.1+  0.2+
    
    Ephemeris:
    2023 RG1                 a,e,i = 1.35, 0.22, 2                   q = 1.0473
    Date    TT    R. A. (2000) Decl.     Delta      r    Elong.  Phase     V
    2023 08 09    00 15 14.7 +02 19 11   0.3209  1.2497   131.4    37.5    22.3
    ...
    2023 08 24    23 55 11.9 +02 00 54   0.3214  1.3006   150.5    22.5    22.0
    ...
    2023 09 01    23 40 22.5 +01 16 43   0.3309  1.3276   161.7    13.8    21.8
    ...
    2023 09 07    23 28 44.9 +00 33 46   0.3435  1.3476   170.1     7.4    21.6
    2023 09 08    23 26 50.1 +00 26 08   0.3461  1.3510   171.4     6.4    21.6
    2023 09 09    23 24 56.4 +00 18 25   0.3489  1.3543   172.7     5.5    21.6
    ...
    2023 09 15    23 14 08.8 -00 28 16   0.3689  1.3739   175.3     3.4    21.6
    ...
    2023 09 23    23 02 10.1 -01 25 44   0.4043  1.3994   166.0    10.0    22.2
    ...
    2023 10 08    22 49 38.9 -02 36 54   0.4957  1.4451   148.4    21.3    23.1
    
    M. P. C. Staff               (C) Copyright 2023 MPC           M.P.E.C. 2023-R56
    


    Read MPEC 2023-R55 Read MPEC 2023-R57


    MPEC number:

    Enter an MPEC number in one of the following forms:

    • 1997-B01 (the full form)
    • J97B01 (the packed version of the full form)
    • B01 (the abbreviated form)